Location: Albuquerque Trailhead
(34.7934°N, 106.3736°W)
Time: 15:14:20
(UTC+00:00)

Cosmos 1461 - Pass Details

Date: 20 June 2021
Orbit: 513 x 650 km, 65.0° (Epoch: 26 July)

Event Time Altitude Azimuth Distance (km) Brightness Sun altitude
Rises 04:04:12 0° 337° (NNW) 2,776 7.8 -17.4°
Reaches altitude 10° 04:06:32 10° 343° (NNW) 1,851 6.5 -17.7°
Maximum altitude 04:10:33 48° 58° (ENE) 718 3.3 -18.3°
Enters shadow 04:11:31 39° 100° (E) 823 3.3 -18.4°
